Karin S — V2BM6 — position and weather

sailwx.info

Track history (hours):
 
Tides and Currents Weather Stations Pressure Air Temp Water Temp Dewpoint Dewpoint Depression Visibility Wind Speed Wind Dir Waves Ship Positions

Karin S

Last reported at 2014-Oct-25 01:05 UTC. Time now 2014-Oct-25 01:37 UTC.
Position N 37°56' E 001°42'.

Length 148 m; draft 8.5 m.

Type: Ship. MMSI: 304871000.

Date/timePositionNaut miles runAvg speedWind from/ knotsBaromVisibWave heightAir tempDewpointWater temp
2014-Oct-25 01:05N 37°56' E 001°42'912.7
2014-Oct-25 00:21N 38°03' E 001°33'1012.8
2014-Oct-24 23:33N 38°10' E 001°24'1312.7
2014-Oct-24 22:33N 38°19' E 001°13'1412.9
2014-Oct-24 21:29N 38°29' E 001°00'1413.0
2014-Oct-24 20:23N 38°39' E 000°47'1112.9
2014-Oct-24 19:33N 38°46' E 000°38'2813.1
2014-Oct-24 17:23N 39°06' E 000°12'1112.9
2014-Oct-24 16:33N 39°14' E 000°02'1313.1
2014-Oct-24 15:33N 39°23' W 000°11'8 7.2
2014-Oct-24 14:31N 39°26' W 000°19'0 0.0
2014-Oct-24 13:31N 39°26' W 000°19'0 0.0
2014-Oct-24 12:31N 39°26' W 000°19'0 0.0
2014-Oct-24 11:28N 39°26' W 000°19'0 0.0
2014-Oct-24 10:31N 39°26' W 000°19'0 0.0
2014-Oct-24 09:31N 39°26' W 000°19'0 0.0
2014-Oct-24 08:31N 39°26' W 000°19'0 0.0
2014-Oct-24 07:30N 39°26' W 000°19'0 0.0
2014-Oct-24 06:33N 39°26' W 000°19'0 0.0
2014-Oct-24 05:33N 39°26' W 000°19'0 0.0
2014-Oct-24 04:33N 39°26' W 000°19'0 0.0
2014-Oct-24 03:33N 39°26' W 000°19'0 0.0
2014-Oct-24 02:31N 39°26' W 000°19'0 0.0
2014-Oct-24 01:31N 39°26' W 000°19'0 0.0
2014-Oct-24 00:31N 39°26' W 000°19'0 0.0
2014-Oct-23 23:31N 39°26' W 000°19'0 0.0
2014-Oct-23 22:31N 39°26' W 000°19'0 0.0
2014-Oct-23 21:31N 39°26' W 000°19'0 0.0
2014-Oct-23 20:31N 39°26' W 000°19'2 1.7
2014-Oct-23 19:33N 39°25' W 000°18'1 0.7
2014-Oct-23 18:33N 39°25' W 000°17'10 9.7
2014-Oct-23 17:32N 39°20' W 000°06'3812.3
2014-Oct-23 14:29N 38°53' E 000°29'  
Track history (hours):
 
Tides and Currents Weather Stations Pressure Air Temp Water Temp Dewpoint Dewpoint Depression Visibility Wind Speed Wind Dir Waves Ship Positions

Karin S

Last reported at 2014-Oct-25 01:05 UTC. Time now 2014-Oct-25 01:37 UTC.
Position N 37°56' E 001°42'.

Length 148 m; draft 8.5 m.

Type: Ship. MMSI: 304871000.

Date/timePositionNaut miles runAvg speedWind from/ knotsBaromVisibWave heightAir tempDewpointWater temp
2014-Oct-25 01:05N 37°56' E 001°42'912.7
2014-Oct-25 00:21N 38°03' E 001°33'1012.8
2014-Oct-24 23:33N 38°10' E 001°24'1312.7
2014-Oct-24 22:33N 38°19' E 001°13'1412.9
2014-Oct-24 21:29N 38°29' E 001°00'1413.0
2014-Oct-24 20:23N 38°39' E 000°47'1112.9
2014-Oct-24 19:33N 38°46' E 000°38'2813.1
2014-Oct-24 17:23N 39°06' E 000°12'1112.9
2014-Oct-24 16:33N 39°14' E 000°02'1313.1
2014-Oct-24 15:33N 39°23' W 000°11'8 7.2
2014-Oct-24 14:31N 39°26' W 000°19'0 0.0
2014-Oct-24 13:31N 39°26' W 000°19'0 0.0
2014-Oct-24 12:31N 39°26' W 000°19'0 0.0
2014-Oct-24 11:28N 39°26' W 000°19'0 0.0
2014-Oct-24 10:31N 39°26' W 000°19'0 0.0
2014-Oct-24 09:31N 39°26' W 000°19'0 0.0
2014-Oct-24 08:31N 39°26' W 000°19'0 0.0
2014-Oct-24 07:30N 39°26' W 000°19'0 0.0
2014-Oct-24 06:33N 39°26' W 000°19'0 0.0
2014-Oct-24 05:33N 39°26' W 000°19'0 0.0
2014-Oct-24 04:33N 39°26' W 000°19'0 0.0
2014-Oct-24 03:33N 39°26' W 000°19'0 0.0
2014-Oct-24 02:31N 39°26' W 000°19'0 0.0
2014-Oct-24 01:31N 39°26' W 000°19'0 0.0
2014-Oct-24 00:31N 39°26' W 000°19'0 0.0
2014-Oct-23 23:31N 39°26' W 000°19'0 0.0
2014-Oct-23 22:31N 39°26' W 000°19'0 0.0
2014-Oct-23 21:31N 39°26' W 000°19'0 0.0
2014-Oct-23 20:31N 39°26' W 000°19'2 1.7
2014-Oct-23 19:33N 39°25' W 000°18'1 0.7
2014-Oct-23 18:33N 39°25' W 000°17'10 9.7
2014-Oct-23 17:32N 39°20' W 000°06'3812.3
2014-Oct-23 14:29N 38°53' E 000°29'  

Dump ship's entire track history